status,avgMeasuredTime,avgSpeed,extID,medianMeasuredTime,TIMESTAMP,vehicleCount,_id,REPORT_ID
OK,74,35,769,74,2014-08-01T07:55:00,7,20746493,190285
OK,76,34,769,76,2014-08-01T08:00:00,3,20746824,190285
OK,76,34,769,76,2014-08-01T08:05:00,2,20747273,190285
OK,62,42,769,62,2014-08-01T08:10:00,2,20747646,190285
OK,47,56,769,47,2014-08-01T08:15:00,1,20748095,190285
OK,111,23,769,111,2014-08-01T08:20:00,1,20748544,190285
OK,86,30,769,86,2014-08-01T08:25:00,2,20748993,190285
OK,62,42,769,62,2014-08-01T08:30:00,1,20749442,190285
OK,105,25,769,105,2014-08-01T08:35:00,4,20749891,190285
OK,105,25,769,105,2014-08-01T08:40:00,6,20750340,190285
OK,91,29,769,91,2014-08-01T08:45:00,5,20750789,190285
OK,91,29,769,91,2014-08-01T08:50:00,3,20751238,190285
OK,88,30,769,88,2014-08-01T08:55:00,1,20751687,190285
OK,88,30,769,88,2014-08-01T09:00:00,1,20752136,190285
OK,74,35,769,74,2014-08-01T09:05:00,2,20752585,190285
OK,70,37,769,70,2014-08-01T09:10:00,3,20753034,190285
OK,70,37,769,70,2014-08-01T09:15:00,0,20753483,190285
OK,70,37,769,70,2014-08-01T09:20:00,0,20753932,190285
OK,70,37,769,70,2014-08-01T09:25:00,0,20754381,190285
OK,70,37,769,70,2014-08-01T09:30:00,0,20754830,190285
OK,70,37,769,70,2014-08-01T09:35:00,0,20755279,190285
OK,69,38,769,69,2014-08-01T09:40:00,4,20755728,190285
OK,67,39,769,67,2014-08-01T09:45:00,3,20756177,190285
OK,73,36,769,73,2014-08-01T09:50:00,2,20756626,190285
OK,87,30,769,87,2014-08-01T09:55:00,4,20757075,190285
OK,79,33,769,79,2014-08-01T10:00:00,5,20757524,190285
OK,73,36,769,73,2014-08-01T10:05:00,4,20757973,190285
OK,63,41,769,63,2014-08-01T10:10:00,1,20758422,190285
OK,92,28,769,92,2014-08-01T10:15:00,1,20758871,190285
OK,92,28,769,92,2014-08-01T10:20:00,1,20759320,190285
OK,48,55,769,48,2014-08-01T10:25:00,1,20759769,190285
OK,48,55,769,48,2014-08-01T10:30:00,1,20760218,190285
OK,48,55,769,48,2014-08-01T10:35:00,0,20760667,190285
OK,87,30,769,87,2014-08-01T10:40:00,1,20761116,190285
OK,88,30,769,88,2014-08-01T10:45:00,8,20761565,190285
OK,96,27,769,96,2014-08-01T10:50:00,6,20762014,190285
OK,70,37,769,70,2014-08-01T10:55:00,3,20762463,190285
OK,70,37,769,70,2014-08-01T11:00:00,3,20762912,190285
OK,67,39,769,67,2014-08-01T11:05:00,3,20763361,190285
OK,67,39,769,67,2014-08-01T11:10:00,3,20763810,190285
OK,67,39,769,67,2014-08-01T11:15:00,0,20764259,190285
OK,98,26,769,98,2014-08-01T11:20:00,5,20764707,190285
OK,95,27,769,95,2014-08-01T11:25:00,6,20765156,190285
OK,101,26,769,101,2014-08-01T11:30:00,2,20765605,190285
OK,92,28,769,92,2014-08-01T11:35:00,0,20766054,190285
OK,92,28,769,92,2014-08-01T11:40:00,0,20766503,190285
OK,76,34,769,76,2014-08-01T11:45:00,2,20766952,190285
OK,76,34,769,76,2014-08-01T11:50:00,2,20767401,190285
OK,99,26,769,99,2014-08-01T11:55:00,1,20767850,190285
OK,92,28,769,92,2014-08-01T12:00:00,4,20768299,190285
OK,72,36,769,72,2014-08-01T12:05:00,8,20768748,190285
OK,79,33,769,79,2014-08-01T12:10:00,5,20769197,190285
OK,65,40,769,65,2014-08-01T12:15:00,1,20769646,190285
OK,68,38,769,68,2014-08-01T12:20:00,3,20770095,190285
OK,76,34,769,76,2014-08-01T12:25:00,5,20770544,190285
OK,98,26,769,98,2014-08-01T12:30:00,5,20770993,190285
OK,105,25,769,105,2014-08-01T12:35:00,2,20771442,190285
OK,108,24,769,108,2014-08-01T12:40:00,2,20771891,190285
OK,95,27,769,95,2014-08-01T12:45:00,2,20772340,190285
OK,99,26,769,99,2014-08-01T12:50:00,7,20772789,190285
OK,99,26,769,99,2014-08-01T12:55:00,9,20773238,190285
OK,72,36,769,72,2014-08-01T13:00:00,4,20773687,190285
OK,70,37,769,70,2014-08-01T13:05:00,2,20774136,190285
OK,69,38,769,69,2014-08-01T13:10:00,2,20774585,190285
OK,59,44,769,59,2014-08-01T13:15:00,1,20775034,190285
OK,71,37,769,71,2014-08-01T13:20:00,1,20775483,190285
OK,71,37,769,71,2014-08-01T13:25:00,0,20775932,190285
OK,71,37,769,71,2014-08-01T13:30:00,0,20776381,190285
OK,73,36,769,73,2014-08-01T13:35:00,1,20776830,190285
OK,74,35,769,74,2014-08-01T13:40:00,2,20777279,190285
OK,76,34,769,76,2014-08-01T13:45:00,1,20777728,190285
OK,74,35,769,74,2014-08-01T13:50:00,1,20778177,190285
OK,77,34,769,77,2014-08-01T13:55:00,5,20778626,190285
OK,77,34,769,77,2014-08-01T14:00:00,3,20779075,190285
OK,84,31,769,84,2014-08-01T14:05:00,5,20779524,190285
OK,81,32,769,81,2014-08-01T14:10:00,9,20779973,190285
OK,69,38,769,69,2014-08-01T14:15:00,4,20780422,190285
OK,97,27,769,97,2014-08-01T14:20:00,3,20780871,190285
OK,101,26,769,101,2014-08-01T14:25:00,2,20781320,190285
OK,97,27,769,97,2014-08-01T14:30:00,0,20781769,190285
OK,82,32,769,82,2014-08-01T14:35:00,1,20782218,190285
OK,82,32,769,82,2014-08-01T14:40:00,0,20782667,190285
OK,82,32,769,82,2014-08-01T14:45:00,0,20783116,190285
OK,82,32,769,82,2014-08-01T14:50:00,0,20783565,190285
OK,82,32,769,82,2014-08-01T14:55:00,0,20784014,190285
OK,82,32,769,82,2014-08-01T15:00:00,0,20784463,190285
OK,92,28,769,92,2014-08-01T15:05:00,3,20784912,190285
OK,48,55,769,48,2014-08-01T15:10:00,1,20785361,190285
OK,87,30,769,87,2014-08-01T15:15:00,2,20785810,190285
OK,81,32,769,81,2014-08-01T15:20:00,1,20786259,190285
OK,81,32,769,81,2014-08-01T15:25:00,0,20786708,190285
OK,60,44,769,60,2014-08-01T15:30:00,4,20787157,190285
OK,58,45,769,58,2014-08-01T15:35:00,2,20787606,190285
OK,89,29,769,89,2014-08-01T15:40:00,1,20788055,190285
OK,89,29,769,89,2014-08-01T15:45:00,1,20788504,190285
OK,89,29,769,89,2014-08-01T15:50:00,0,20788953,190285
OK,72,36,769,72,2014-08-01T15:55:00,5,20789402,190285
OK,88,30,769,88,2014-08-01T16:00:00,0,20789851,190285
OK,53,49,769,53,2014-08-01T16:05:00,1,20790300,190285
OK,53,49,769,53,2014-08-01T16:10:00,1,20790749,190285
OK,53,49,769,53,2014-08-01T16:15:00,0,20791198,190285
OK,53,49,769,53,2014-08-01T16:20:00,0,20791647,190285
OK,53,49,769,53,2014-08-01T16:25:00,0,20792096,190285
OK,94,28,769,94,2014-08-01T16:30:00,1,20792545,190285
OK,94,28,769,94,2014-08-01T16:35:00,1,20792994,190285
OK,94,28,769,94,2014-08-01T16:40:00,0,20793443,190285
OK,94,28,769,94,2014-08-01T16:45:00,0,20793892,190285
OK,94,28,769,94,2014-08-01T16:50:00,0,20794341,190285
OK,94,28,769,94,2014-08-01T16:55:00,0,20794790,190285
OK,94,28,769,94,2014-08-01T17:00:00,0,20795239,190285
OK,94,28,769,94,2014-08-01T17:05:00,0,20795688,190285
OK,94,28,769,94,2014-08-01T17:10:00,0,20796137,190285
OK,59,44,769,59,2014-08-01T17:15:00,1,20796586,190285
OK,59,44,769,59,2014-08-01T17:20:00,0,20797035,190285
OK,59,44,769,59,2014-08-01T17:25:00,0,20797484,190285
OK,59,44,769,59,2014-08-01T17:30:00,0,20797933,190285
OK,59,44,769,59,2014-08-01T17:35:00,0,20798382,190285
OK,75,35,769,75,2014-08-01T17:40:00,1,20798831,190285
OK,75,35,769,75,2014-08-01T17:45:00,1,20799280,190285
OK,75,35,769,75,2014-08-01T17:50:00,0,20799729,190285
OK,75,35,769,75,2014-08-01T17:55:00,0,20800178,190285
OK,75,35,769,75,2014-08-01T18:00:00,0,20800627,190285
OK,75,35,769,75,2014-08-01T18:05:00,0,20801076,190285
OK,75,35,769,75,2014-08-01T18:10:00,0,20801525,190285
OK,75,35,769,75,2014-08-01T18:15:00,0,20801974,190285
OK,75,35,769,75,2014-08-01T18:20:00,0,20802423,190285
OK,75,35,769,75,2014-08-01T18:25:00,0,20802872,190285
OK,52,50,769,52,2014-08-01T18:30:00,2,20803321,190285
OK,53,49,769,53,2014-08-01T18:35:00,3,20803770,190285
OK,77,34,769,77,2014-08-01T18:40:00,3,20804219,190285
OK,77,34,769,77,2014-08-01T18:45:00,3,20804668,190285
OK,48,55,769,48,2014-08-01T18:50:00,0,20805117,190285
OK,48,55,769,48,2014-08-01T18:55:00,0,20805566,190285
OK,48,55,769,48,2014-08-01T19:00:00,0,20806015,190285
OK,48,55,769,48,2014-08-01T19:05:00,0,20806464,190285
OK,48,55,769,48,2014-08-01T19:10:00,0,20806913,190285
OK,48,55,769,48,2014-08-01T19:15:00,0,20807362,190285
OK,91,29,769,91,2014-08-01T19:20:00,1,20807811,190285
OK,91,29,769,91,2014-08-01T19:25:00,0,20808260,190285
OK,81,32,769,81,2014-08-01T19:30:00,1,20808709,190285
OK,73,36,769,73,2014-08-01T19:35:00,3,20809158,190285
OK,61,43,769,61,2014-08-01T19:40:00,0,20809607,190285
OK,70,37,769,70,2014-08-01T19:45:00,1,20810056,190285
OK,70,37,769,70,2014-08-01T19:50:00,1,20810505,190285
OK,196,13,769,196,2014-08-01T19:55:00,1,20810954,190285
OK,88,30,769,88,2014-08-01T21:20:00,0,20814740,190285
OK,73,36,769,73,2014-08-01T22:00:00,0,20816683,190285
OK,73,36,769,73,2014-08-01T22:05:00,0,20817132,190285
OK,73,36,769,73,2014-08-01T22:10:00,0,20817454,190285
OK,73,36,769,73,2014-08-01T22:15:00,0,20817883,190285
OK,73,36,769,73,2014-08-01T22:20:00,0,20818173,190285
OK,73,36,769,73,2014-08-01T22:25:00,0,20818489,190285
OK,66,40,769,66,2014-08-01T23:40:00,2,20822008,190285
OK,59,44,769,59,2014-08-01T23:45:00,2,20822231,190285
OK,63,41,769,63,2014-08-02T00:00:00,0,20823122,190285
OK,63,41,769,63,2014-08-02T00:05:00,0,20823571,190285
OK,63,41,769,63,2014-08-02T00:10:00,0,20824020,190285
OK,63,41,769,63,2014-08-02T00:15:00,0,20824469,190285
OK,63,41,769,63,2014-08-02T00:20:00,0,20824918,190285
OK,63,41,769,63,2014-08-02T00:25:00,0,20825367,190285
OK,63,41,769,63,2014-08-02T00:30:00,0,20825816,190285
OK,63,41,769,63,2014-08-02T00:35:00,0,20826265,190285
OK,82,32,769,82,2014-08-02T00:40:00,1,20826714,190285
OK,82,32,769,82,2014-08-02T00:45:00,0,20827163,190285
OK,82,32,769,82,2014-08-02T00:50:00,0,20827612,190285
OK,82,32,769,82,2014-08-02T00:55:00,0,20828061,190285
OK,82,32,769,82,2014-08-02T01:00:00,0,20828510,190285
OK,82,32,769,82,2014-08-02T01:05:00,0,20828959,190285
OK,82,32,769,82,2014-08-02T01:10:00,0,20829408,190285
OK,82,32,769,82,2014-08-02T01:15:00,0,20829857,190285
OK,82,32,769,82,2014-08-02T01:20:00,0,20830306,190285
OK,82,32,769,82,2014-08-02T01:25:00,0,20830755,190285
OK,82,32,769,82,2014-08-02T01:30:00,0,20831204,190285
OK,82,32,769,82,2014-08-02T01:35:00,0,20831653,190285
OK,82,32,769,82,2014-08-02T01:40:00,0,20832102,190285
OK,82,32,769,82,2014-08-02T01:45:00,0,20832551,190285
OK,82,32,769,82,2014-08-02T01:50:00,0,20833000,190285
OK,82,32,769,82,2014-08-02T01:55:00,0,20833449,190285
OK,82,32,769,82,2014-08-02T02:00:00,0,20833898,190285
OK,61,43,769,61,2014-08-02T02:05:00,1,20834347,190285
OK,61,43,769,61,2014-08-02T02:10:00,1,20834796,190285
OK,61,43,769,61,2014-08-02T02:15:00,0,20835245,190285
OK,61,43,769,61,2014-08-02T02:20:00,0,20835694,190285
OK,61,43,769,61,2014-08-02T02:25:00,0,20836143,190285
OK,61,43,769,61,2014-08-02T02:30:00,0,20836592,190285
OK,61,43,769,61,2014-08-02T02:35:00,0,20837041,190285
OK,61,43,769,61,2014-08-02T02:40:00,0,20837490,190285
OK,41,64,769,41,2014-08-02T02:45:00,1,20837939,190285
OK,71,37,769,71,2014-08-02T02:50:00,1,20838388,190285
OK,71,37,769,71,2014-08-02T02:55:00,0,20838837,190285
OK,71,37,769,71,2014-08-02T03:00:00,0,20839286,190285
OK,71,37,769,71,2014-08-02T03:05:00,0,20839735,190285
OK,71,37,769,71,2014-08-02T03:10:00,0,20840184,190285
OK,71,37,769,71,2014-08-02T03:15:00,0,20840633,190285
OK,71,37,769,71,2014-08-02T03:20:00,0,20841082,190285
OK,71,37,769,71,2014-08-02T03:25:00,0,20841531,190285
OK,71,37,769,71,2014-08-02T03:30:00,0,20841980,190285
OK,71,37,769,71,2014-08-02T03:35:00,0,20842429,190285
OK,71,37,769,71,2014-08-02T03:40:00,0,20842878,190285
OK,71,37,769,71,2014-08-02T03:45:00,0,20843327,190285
OK,71,37,769,71,2014-08-02T03:50:00,0,20843776,190285
OK,71,37,769,71,2014-08-02T03:55:00,0,20844225,190285
OK,89,29,769,89,2014-08-02T04:10:00,0,20845135,190285
OK,89,29,769,89,2014-08-02T04:15:00,1,20845315,190285
OK,89,29,769,89,2014-08-02T04:20:00,0,20845671,190285
OK,89,29,769,89,2014-08-02T04:30:00,0,20846227,190285
OK,89,29,769,89,2014-08-02T04:35:00,0,20846594,190285
OK,89,29,769,89,2014-08-02T04:40:00,0,20846977,190285
OK,89,29,769,89,2014-08-02T04:45:00,0,20847236,190285
OK,89,29,769,89,2014-08-02T04:50:00,0,20847602,190285
OK,89,29,769,89,2014-08-02T05:00:00,0,20848318,190285
OK,89,29,769,89,2014-08-02T05:10:00,0,20848836,190285
OK,45,58,769,45,2014-08-02T05:15:00,1,20849029,190285
OK,45,58,769,45,2014-08-02T05:20:00,1,20849373,190285
OK,49,53,769,49,2014-08-02T05:40:00,1,20850463,190285
OK,85,31,769,85,2014-08-02T05:50:00,1,20851122,190285
OK,78,33,769,78,2014-08-02T05:55:00,4,20851376,190285
OK,78,33,769,78,2014-08-02T06:00:00,4,20851679,190285
OK,76,34,769,76,2014-08-02T06:05:00,1,20852128,190285
OK,48,55,769,48,2014-08-02T06:10:00,2,20852577,190285
OK,49,53,769,49,2014-08-02T06:15:00,3,20853026,190285
OK,78,33,769,78,2014-08-02T06:20:00,0,20853475,190285
OK,195,13,769,195,2014-08-02T06:25:00,1,20853924,190285
OK,195,13,769,195,2014-08-02T06:30:00,1,20854373,190285
OK,195,13,769,195,2014-08-02T06:35:00,0,20854822,190285
OK,195,13,769,195,2014-08-02T06:40:00,0,20855271,190285
OK,195,13,769,195,2014-08-02T06:45:00,0,20855720,190285
OK,89,29,769,89,2014-08-02T06:50:00,1,20856169,190285
OK,89,29,769,89,2014-08-02T06:55:00,1,20856618,190285
OK,89,29,769,89,2014-08-02T07:00:00,0,20857067,190285
OK,58,45,769,58,2014-08-02T07:05:00,1,20857516,190285
OK,69,38,769,69,2014-08-02T07:10:00,2,20857965,190285
OK,81,32,769,81,2014-08-02T07:15:00,1,20858414,190285
OK,94,28,769,94,2014-08-02T07:20:00,1,20858863,190285
OK,56,47,769,56,2014-08-02T07:25:00,3,20859312,190285
OK,56,47,769,56,2014-08-02T07:30:00,4,20859761,190285
OK,56,47,769,56,2014-08-02T07:35:00,0,20860210,190285
OK,56,47,769,56,2014-08-02T07:40:00,0,20860659,190285
OK,87,30,769,87,2014-08-02T07:45:00,3,20861108,190285
OK,56,47,769,56,2014-08-02T07:50:00,3,20861557,190285
OK,56,47,769,56,2014-08-02T07:55:00,1,20862006,190285
OK,56,47,769,56,2014-08-02T08:00:00,0,20862455,190285
OK,90,29,769,90,2014-08-02T08:05:00,2,20862904,190285
OK,81,32,769,81,2014-08-02T08:10:00,5,20863353,190285
OK,75,35,769,75,2014-08-02T08:15:00,5,20863802,190285
OK,63,41,769,63,2014-08-02T08:20:00,4,20864251,190285
OK,69,38,769,69,2014-08-02T08:25:00,4,20864700,190285
OK,69,38,769,69,2014-08-02T08:30:00,2,20865149,190285
OK,70,37,769,70,2014-08-02T08:35:00,2,20865598,190285
OK,70,37,769,70,2014-08-02T08:40:00,2,20866047,190285
OK,70,37,769,70,2014-08-02T08:45:00,0,20866496,190285
OK,79,33,769,79,2014-08-02T08:50:00,1,20866945,190285
OK,80,33,769,80,2014-08-02T08:55:00,2,20867394,190285
OK,73,36,769,73,2014-08-02T09:00:00,4,20867843,190285
OK,66,40,769,66,2014-08-02T09:05:00,3,20868292,190285
OK,77,34,769,77,2014-08-02T09:10:00,2,20868741,190285
OK,70,37,769,70,2014-08-02T09:15:00,2,20869190,190285
OK,52,50,769,52,2014-08-02T09:20:00,2,20869639,190285
OK,66,40,769,66,2014-08-02T09:25:00,2,20870088,190285
OK,62,42,769,62,2014-08-02T09:30:00,1,20870537,190285
OK,106,24,769,106,2014-08-02T09:35:00,1,20870986,190285
OK,94,28,769,94,2014-08-02T09:40:00,2,20871435,190285
OK,76,34,769,76,2014-08-02T09:45:00,2,20871884,190285
OK,67,39,769,67,2014-08-02T09:50:00,2,20872333,190285
OK,65,40,769,65,2014-08-02T09:55:00,1,20872782,190285
OK,65,40,769,65,2014-08-02T10:00:00,0,20873231,190285
OK,65,40,769,65,2014-08-02T10:05:00,0,20873680,190285
OK,65,40,769,65,2014-08-02T10:10:00,0,20874129,190285
OK,65,40,769,65,2014-08-02T10:15:00,2,20874578,190285
OK,80,33,769,80,2014-08-02T10:20:00,5,20875027,190285
OK,87,30,769,87,2014-08-02T10:25:00,6,20875476,190285
OK,66,40,769,66,2014-08-02T10:30:00,7,20875925,190285
OK,66,40,769,66,2014-08-02T10:35:00,6,20876374,190285
OK,89,29,769,89,2014-08-02T10:40:00,3,20876823,190285
OK,74,35,769,74,2014-08-02T10:45:00,2,20877272,190285
OK,59,44,769,59,2014-08-02T10:50:00,1,20877721,190285
OK,74,35,769,74,2014-08-02T10:55:00,1,20878170,190285
OK,67,39,769,67,2014-08-02T11:00:00,2,20878619,190285
OK,65,40,769,65,2014-08-02T11:05:00,3,20879068,190285
OK,65,40,769,65,2014-08-02T11:10:00,3,20879517,190285
OK,78,33,769,78,2014-08-02T11:15:00,2,20879966,190285
OK,93,28,769,93,2014-08-02T11:20:00,1,20880415,190285
OK,62,42,769,62,2014-08-02T11:25:00,1,20880864,190285
OK,62,42,769,62,2014-08-02T11:30:00,1,20881313,190285
OK,96,27,769,96,2014-08-02T11:35:00,1,20881762,190285
OK,96,27,769,96,2014-08-02T11:40:00,3,20882211,190285
OK,90,29,769,90,2014-08-02T11:45:00,2,20882660,190285
OK,112,23,769,112,2014-08-02T11:50:00,3,20883109,190285
OK,76,34,769,76,2014-08-02T11:55:00,5,20883558,190285
OK,59,44,769,59,2014-08-02T12:00:00,2,20884007,190285
OK,67,39,769,67,2014-08-02T12:05:00,0,20884456,190285
OK,73,36,769,73,2014-08-02T12:10:00,1,20884905,190285
OK,106,24,769,106,2014-08-02T12:15:00,2,20885354,190285
OK,102,25,769,102,2014-08-02T12:20:00,6,20885803,190285
OK,96,27,769,96,2014-08-02T12:25:00,4,20886252,190285
OK,75,35,769,75,2014-08-02T12:30:00,2,20886701,190285
OK,62,42,769,62,2014-08-02T12:35:00,1,20887150,190285
OK,60,44,769,60,2014-08-02T12:40:00,1,20887599,190285
OK,65,40,769,65,2014-08-02T12:45:00,2,20888048,190285
OK,63,41,769,63,2014-08-02T12:50:00,1,20888497,190285
OK,72,36,769,72,2014-08-02T12:55:00,1,20888946,190285
OK,81,32,769,81,2014-08-02T13:00:00,2,20889395,190285
OK,108,24,769,108,2014-08-02T13:05:00,2,20889844,190285
OK,54,48,769,54,2014-08-02T13:10:00,3,20890293,190285
OK,71,37,769,71,2014-08-02T13:15:00,2,20890742,190285
OK,49,53,769,49,2014-08-02T13:20:00,2,20891191,190285
OK,51,51,769,51,2014-08-02T13:25:00,3,20891640,190285
OK,81,32,769,81,2014-08-02T13:30:00,2,20892089,190285
OK,86,30,769,86,2014-08-02T13:35:00,1,20892538,190285
OK,86,30,769,86,2014-08-02T13:40:00,0,20892987,190285
OK,79,33,769,79,2014-08-02T13:45:00,2,20893436,190285
OK,87,30,769,87,2014-08-02T13:50:00,0,20893885,190285
OK,87,30,769,87,2014-08-02T13:55:00,0,20894334,190285
OK,76,34,769,76,2014-08-02T14:00:00,2,20894783,190285
OK,55,48,769,55,2014-08-02T14:05:00,5,20895232,190285
OK,65,40,769,65,2014-08-02T14:10:00,9,20895681,190285
OK,73,36,769,73,2014-08-02T14:15:00,5,20896130,190285
OK,62,42,769,62,2014-08-02T14:20:00,2,20896579,190285
OK,70,37,769,70,2014-08-02T14:25:00,4,20897028,190285
OK,71,37,769,71,2014-08-02T14:30:00,2,20897477,190285
OK,79,33,769,79,2014-08-02T14:35:00,1,20897926,190285
OK,79,33,769,79,2014-08-02T14:40:00,0,20898375,190285
OK,79,33,769,79,2014-08-02T14:45:00,0,20898824,190285
OK,79,33,769,79,2014-08-02T14:50:00,0,20899273,190285
OK,79,33,769,79,2014-08-02T14:55:00,0,20899722,190285
OK,79,33,769,79,2014-08-02T15:00:00,0,20900171,190285
OK,92,28,769,92,2014-08-02T15:05:00,2,20900620,190285
OK,89,29,769,89,2014-08-02T15:10:00,3,20901069,190285
OK,89,29,769,89,2014-08-02T15:15:00,1,20901518,190285
OK,81,32,769,81,2014-08-02T15:20:00,1,20901967,190285
OK,81,32,769,81,2014-08-02T15:25:00,3,20902416,190285
OK,84,31,769,84,2014-08-02T15:30:00,2,20902865,190285
OK,76,34,769,76,2014-08-02T15:35:00,2,20903314,190285
OK,72,36,769,72,2014-08-02T15:40:00,0,20903763,190285
OK,72,36,769,72,2014-08-02T15:45:00,0,20904212,190285
OK,87,30,769,87,2014-08-02T15:50:00,1,20904661,190285
OK,87,30,769,87,2014-08-02T15:55:00,1,20905110,190285
OK,116,22,769,116,2014-08-02T16:00:00,1,20905559,190285
OK,116,22,769,116,2014-08-02T16:05:00,1,20906008,190285
OK,116,22,769,116,2014-08-02T16:10:00,0,20906457,190285
OK,116,22,769,116,2014-08-02T16:15:00,0,20906906,190285
OK,116,22,769,116,2014-08-02T16:20:00,0,20907355,190285
OK,116,22,769,116,2014-08-02T16:25:00,0,20907804,190285
OK,116,22,769,116,2014-08-02T16:30:00,0,20908253,190285
OK,116,22,769,116,2014-08-02T16:35:00,0,20908702,190285
OK,116,22,769,116,2014-08-02T16:40:00,0,20909151,190285
OK,47,56,769,47,2014-08-02T16:45:00,1,20909600,190285
OK,47,56,769,47,2014-08-02T16:50:00,1,20910049,190285
OK,47,56,769,47,2014-08-02T16:55:00,0,20910498,190285
OK,47,56,769,47,2014-08-02T17:00:00,0,20910947,190285
OK,47,56,769,47,2014-08-02T17:05:00,0,20911396,190285
OK,47,56,769,47,2014-08-02T17:10:00,0,20911845,190285
OK,47,56,769,47,2014-08-02T17:15:00,0,20912294,190285
OK,58,45,769,58,2014-08-02T17:20:00,1,20912743,190285
OK,58,45,769,58,2014-08-02T17:25:00,1,20913192,190285
OK,58,45,769,58,2014-08-02T17:30:00,0,20913641,190285
OK,48,55,769,48,2014-08-02T17:35:00,2,20914090,190285
OK,48,55,769,48,2014-08-02T17:40:00,2,20914539,190285
OK,48,55,769,48,2014-08-02T17:45:00,0,20914988,190285
OK,48,55,769,48,2014-08-02T17:50:00,0,20915437,190285
OK,48,55,769,48,2014-08-02T17:55:00,0,20915886,190285
OK,103,25,769,103,2014-08-02T18:00:00,1,20916335,190285
OK,103,25,769,103,2014-08-02T18:05:00,0,20916784,190285
OK,103,25,769,103,2014-08-02T18:10:00,0,20917233,190285
OK,103,25,769,103,2014-08-02T18:15:00,0,20917682,190285
OK,103,25,769,103,2014-08-02T18:20:00,0,20918131,190285
OK,103,25,769,103,2014-08-02T18:25:00,0,20918580,190285
OK,103,25,769,103,2014-08-02T18:30:00,0,20919029,190285
OK,103,25,769,103,2014-08-02T18:35:00,0,20919478,190285
OK,47,56,769,47,2014-08-02T18:40:00,1,20919927,190285
OK,47,56,769,47,2014-08-02T18:45:00,0,20920376,190285
OK,64,41,769,64,2014-08-02T18:50:00,1,20920825,190285
OK,64,41,769,64,2014-08-02T18:55:00,1,20921274,190285
OK,64,41,769,64,2014-08-02T19:00:00,0,20921723,190285
OK,64,41,769,64,2014-08-02T19:05:00,0,20922172,190285
OK,64,41,769,64,2014-08-02T19:10:00,0,20922621,190285
OK,64,41,769,64,2014-08-02T19:15:00,0,20923070,190285
OK,64,41,769,64,2014-08-02T19:20:00,0,20923519,190285
OK,64,41,769,64,2014-08-02T19:25:00,0,20923968,190285
OK,64,41,769,64,2014-08-02T19:30:00,0,20924417,190285
OK,64,41,769,64,2014-08-02T19:35:00,0,20924866,190285
OK,54,48,769,54,2014-08-02T19:40:00,1,20925315,190285
OK,54,48,769,54,2014-08-02T19:45:00,1,20925764,190285
OK,54,48,769,54,2014-08-02T19:50:00,0,20926213,190285
OK,85,31,769,85,2014-08-02T19:55:00,4,20926662,190285
OK,85,31,769,85,2014-08-02T20:00:00,4,20927111,190285
OK,74,35,769,74,2014-08-02T20:05:00,2,20927560,190285
OK,67,39,769,67,2014-08-02T20:10:00,0,20928009,190285
OK,67,39,769,67,2014-08-02T20:15:00,0,20928458,190285
OK,67,39,769,67,2014-08-02T20:20:00,0,20928907,190285
OK,52,50,769,52,2014-08-02T20:25:00,1,20929356,190285
OK,52,50,769,52,2014-08-02T20:30:00,0,20929805,190285
OK,52,50,769,52,2014-08-02T20:35:00,0,20930254,190285
OK,52,50,769,52,2014-08-02T20:40:00,0,20930703,190285
OK,52,50,769,52,2014-08-02T20:45:00,0,20931152,190285
OK,45,58,769,45,2014-08-02T20:50:00,1,20931601,190285
OK,74,35,769,74,2014-08-02T20:55:00,2,20932050,190285
OK,83,31,769,83,2014-08-02T21:00:00,2,20932499,190285
OK,63,41,769,63,2014-08-02T21:05:00,0,20932948,190285
OK,63,41,769,63,2014-08-02T21:10:00,0,20933397,190285
OK,63,41,769,63,2014-08-02T21:15:00,0,20933846,190285
OK,63,41,769,63,2014-08-02T21:20:00,0,20934295,190285
OK,58,45,769,58,2014-08-02T21:25:00,1,20934744,190285
OK,58,45,769,58,2014-08-02T21:30:00,1,20935193,190285
OK,58,45,769,58,2014-08-02T21:35:00,0,20935642,190285
OK,58,45,769,58,2014-08-02T21:40:00,0,20936091,190285
OK,49,53,769,49,2014-08-02T21:45:00,1,20936540,190285
OK,49,53,769,49,2014-08-02T21:50:00,0,20936989,190285
OK,49,53,769,49,2014-08-02T21:55:00,0,20937438,190285
OK,49,53,769,49,2014-08-02T22:00:00,0,20937887,190285
OK,49,53,769,49,2014-08-02T22:05:00,0,20938336,190285
OK,49,53,769,49,2014-08-02T22:10:00,0,20938785,190285
OK,49,53,769,49,2014-08-02T22:15:00,0,20939234,190285
OK,49,53,769,49,2014-08-02T22:20:00,0,20939683,190285
OK,49,53,769,49,2014-08-02T22:25:00,0,20940132,190285
OK,49,53,769,49,2014-08-02T22:30:00,0,20940581,190285
OK,49,53,769,49,2014-08-02T22:35:00,0,20941030,190285
OK,49,53,769,49,2014-08-02T22:40:00,0,20941479,190285
OK,74,35,769,74,2014-08-02T22:45:00,1,20941928,190285
OK,74,35,769,74,2014-08-02T22:50:00,0,20942377,190285
OK,63,41,769,63,2014-08-02T22:55:00,1,20942826,190285
OK,63,41,769,63,2014-08-02T23:00:00,0,20943275,190285
OK,63,41,769,63,2014-08-02T23:10:00,0,20943724,190285
OK,63,41,769,63,2014-08-02T23:15:00,0,20944173,190285
OK,63,41,769,63,2014-08-02T23:20:00,0,20944622,190285
OK,47,56,769,47,2014-08-02T23:25:00,1,20945071,190285
OK,47,56,769,47,2014-08-02T23:30:00,1,20945520,190285
OK,47,56,769,47,2014-08-02T23:35:00,0,20945969,190285
OK,47,56,769,47,2014-08-02T23:40:00,0,20946418,190285
OK,47,56,769,47,2014-08-02T23:45:00,0,20946867,190285
OK,47,56,769,47,2014-08-02T23:50:00,0,20947316,190285
OK,47,56,769,47,2014-08-02T23:55:00,0,20947765,190285
OK,47,56,769,47,2014-08-03T00:00:00,0,20948214,190285